Location: Poughquag
(41.6090°N, 73.6820°W)
Time: 14:53:31
(UTC-04:00)

Altair - Pass Details

Date: 30 May 2020
Orbit: 1501 x 1683 km, 47.2° (Epoch: 05 July)

Event Time Altitude Azimuth Distance (km) Brightness Sun altitude
Rises 01:09:50 0° 264° (W) 4,878 10.0 -26.4°
Reaches altitude 10° 01:13:00 10° 268° (W) 3,909 9.5 -26.4°
Maximum altitude 01:23:03 67° 350° (N) 1,798 7.9 -26.2°
Drops below altitude 10° 01:33:11 10° 73° (ENE) 3,940 9.9 -25.8°
Sets 01:36:24 0° 76° (ENE) 4,918 10.5 -25.7°
